User: anonymous
Location: Cincinnati Observatory Center
(39.1389°N, 84.4225°W)
Time: 07:45:47
(UTC-04:00)
Language:

HST - Orbit

View from above orbital plane
View from above orbital plane
View from above satellite
View from above satellite

Ground track
Ground track

The orbit data is extracted from the following two-line orbital elements,

1 20580U 90037B   14232.69922485  .00001271  00000-0  74162-4 0   807
2 20580 028.4705 332.9835 0002722 258.6546 219.9291 15.05631084134458
Epoch (UTC): 20 August 2014 16:46:53
Eccentricity: 0.0002722
inclination: 28.4705°
perigee height: 547 km
apogee height: 551 km
right ascension of ascending node: 332.9835°
argument of perigee: 258.6546°
revolutions per day: 15.05631084
mean anomaly at epoch: 219.9291°
orbit number at epoch: 13445

The dashed part of the orbit path shows where the satellite is in the earth's shadow,  

DLR